GEFSSE_500_meanwind_330.txt.gz
Wind_Speed
6 6 5 4 3 2 2 2 2 3 3 4 5 5 6 6 7 8 7 7 7 7 7 7 8 8 8 8 7 8 8 8 7 8 10 10 9 9 9 9 9 10 10
7 6 5 5 4 3 2 1 2 3 3 4 4 5 5 7 8 8 7 6 6 6 7 7 7 7 7 7 7 8 8 8 8 8 9 9 9 9 9 9 8 8 9
7 6 6 6 5 4 3 3 2 3 3 2 3 4 5 6 7 7 7 6 6 6 6 7 6 6 6 6 6 7 8 8 8 9 9 9 9 9 9 9 8 8 8
7 8 7 7 6 5 5 4 3 2 2 2 2 4 5 5 6 7 7 6 5 5 5 6 6 6 6 6 6 7 8 8 8 9 9 9 9 9 8 8 7 7 8
8 8 8 7 6 6 5 4 3 3 3 2 2 4 5 5 6 6 6 5 5 5 5 5 5 6 6 6 6 6 8 9 9 9 10 9 9 9 9 8 8 8 8
8 8 8 7 7 6 5 5 5 4 4 4 3 4 4 4 5 5 5 5 4 4 4 4 5 6 6 5 5 6 7 8 8 9 9 10 9 9 9 9 8 9 9
9 9 8 8 8 6 5 4 5 5 6 5 5 5 5 5 4 4 4 5 4 4 3 3 4 4 5 5 5 6 7 8 8 8 8 9 8 8 9 9 9 9 9
9 9 9 9 8 7 6 5 5 5 6 6 7 7 6 4 4 4 3 3 3 3 4 4 4 4 4 4 5 5 6 6 6 6 7 7 8 8 8 10 10 9 9
9 9 9 9 8 7 7 6 6 7 7 7 6 6 5 5 4 4 3 2 2 2 2 3 4 4 4 3 4 4 4 5 6 6 6 7 6 7 7 8 9 9 9
9 9 9 9 8 8 8 7 6 7 6 6 6 5 5 5 5 4 3 2 1 1 1 2 3 2 2 3 3 4 4 5 6 6 6 7 6 6 6 6 6 7 9
9 9 9 9 9 9 8 8 7 7 6 6 6 5 5 5 5 5 4 3 2 1 1 1 1 1 2 2 3 3 3 4 5 5 5 5 6 5 5 5 6 6 7
9 9 9 9 9 9 8 8 8 8 7 7 6 5 5 5 5 4 4 3 3 3 2 1 0 1 2 3 3 3 3 4 4 4 3 3 4 4 5 5 5 6 6
9 9 9 9 9 9 9 9 8 8 7 7 7 6 5 5 5 5 4 4 4 4 3 3 0 1 2 2 3 3 3 3 3 4 3 2 3 4 4 4 5 6 5
9 9 9 9 9 10 9 8 8 8 7 8 7 7 6 5 5 5 5 4 4 4 4 3 2 2 2 2 2 2 3 4 3 3 2 2 3 3 3 4 4 5 5
8 9 9 9 8 9 9 8 8 8 8 8 8 7 6 5 4 4 4 4 4 4 4 4 3 1 1 1 2 3 3 3 3 3 3 2 2 2 3 4 5 5 5
9 8 8 9 9 8 8 8 8 8 7 7 7 7 7 6 6 5 6 5 5 4 5 4 3 2 2 2 3 3 2 2 2 1 2 2 2 3 3 4 4 5 6
8 8 8 8 8 8 8 8 8 8 8 8 7 6 6 7 6 6 6 5 4 4 4 3 3 3 3 3 3 2 2 2 2 2 1 2 3 4 4 5 6 6 7
7 7 7 8 8 7 7 8 8 8 8 8 8 7 6 6 6 5 5 4 4 4 3 3 3 3 3 3 3 2 2 3 3 3 2 2 3 4 5 6 6 7 7
7 6 6 7 7 7 7 8 7 7 7 7 7 7 7 6 6 4 4 4 3 3 3 3 2 2 2 3 3 4 4 3 3 3 3 3 4 5 6 6 7 7 7
6 5 5 6 6 6 6 7 7 6 6 7 7 7 6 6 6 6 5 4 4 3 3 3 3 3 3 4 4 4 4 3 3 3 4 4 5 6 7 7 8 8 8
5 4 5 6 6 5 6 7 7 7 6 6 6 6 7 7 7 7 6 5 4 4 4 4 4 3 4 4 4 5 5 5 4 5 5 5 6 7 7 7 8 8 9
5 5 5 5 5 6 6 7 7 7 6 6 5 6 6 7 7 7 6 5 4 5 5 5 5 4 4 4 5 6 6 6 6 6 7 7 7 8 7 8 9 9 10
5 5 5 5 5 5 6 6 7 6 6 6 6 6 6 6 6 7 6 6 6 5 5 5 5 5 5 5 6 6 6 6 7 7 8 8 9 8 8 9 10 11 11
5 5 5 5 6 6 6 6 7 7 6 6 6 7 6 6 6 6 6 7 7 6 6 6 6 6 6 7 7 7 8 8 8 8 9 9 10 10 10 10 11 12 12
6 5 5 6 6 6 7 7 7 7 7 7 7 8 8 8 8 7 7 8 8 8 7 7 7 7 8 8 8 9 9 10 11 11 11 11 11 12 12 12 13 13 14
6 6 6 6 6 7 7 7 7 8 8 8 9 9 9 9 8 8 8 8 9 9 9 8 8 9 9 9 9 10 11 12 13 13 13 13 13 14 14 14 14 15 15

GEFSSE_500_meanwind_336.txt.gz
Wind_Speed
8 7 5 5 4 3 2 1 2 3 4 5 7 7 7 7 7 7 6 6 6 6 8 9 8 8 9 10 9 9 9 9 9 10 11 11 12 11 10 10 10 9 9
8 8 6 5 4 3 2 1 2 3 3 4 6 6 6 6 7 7 7 7 6 7 7 7 7 9 9 9 9 10 9 9 9 10 11 11 11 11 10 9 8 8 9
9 8 6 5 5 4 3 2 2 2 3 3 6 6 5 5 6 7 7 7 6 6 7 7 7 8 8 8 8 9 9 9 9 9 9 8 9 9 9 8 7 7 7
8 7 7 6 5 4 4 3 2 2 2 3 5 5 4 5 5 6 6 7 6 7 7 7 7 7 7 7 7 8 8 7 7 8 8 7 8 9 9 8 7 7 7
8 8 8 8 6 5 4 3 3 3 2 2 3 4 4 4 4 5 6 6 5 5 5 6 7 6 6 7 7 7 7 7 7 8 7 8 8 8 8 7 7 8 7
9 8 8 9 7 6 5 5 4 4 3 0 2 3 2 3 3 4 5 5 5 5 5 5 6 7 7 7 7 6 6 6 7 7 8 8 8 9 8 7 8 8 8
9 9 9 9 8 7 6 6 5 6 5 3 1 1 1 1 1 3 4 4 4 4 4 4 4 5 6 5 6 6 6 7 6 7 7 8 9 8 8 8 8 8 9
9 9 9 9 9 9 8 6 5 6 5 4 2 0 1 1 1 1 2 2 2 2 3 3 3 4 4 4 5 5 6 6 7 7 8 9 8 7 7 9 8 8 8
9 9 9 9 10 10 9 7 6 6 5 5 3 1 2 1 1 1 1 1 1 2 3 3 3 3 4 4 4 5 6 5 6 6 7 7 7 7 6 6 6 7 7
10 10 10 10 10 10 8 7 5 5 6 5 4 3 2 2 1 1 1 1 0 2 3 3 3 2 2 3 4 4 4 5 5 6 5 6 5 5 5 5 6 7 7
11 11 10 11 11 11 9 7 6 6 6 6 4 3 2 2 1 1 1 1 1 2 2 2 2 2 2 3 5 4 4 4 5 6 5 5 4 4 5 5 5 6 7
11 11 11 11 12 11 11 9 8 7 6 6 5 4 3 2 2 1 1 2 2 3 2 2 3 3 3 3 4 4 4 4 4 5 5 5 5 5 5 5 5 6 6
11 11 12 12 12 12 12 10 10 8 7 7 7 6 4 3 3 2 2 2 2 3 3 4 4 4 3 3 3 3 3 3 3 4 5 5 6 5 5 5 6 6 6
11 11 12 12 12 13 12 11 10 10 9 8 8 8 7 5 3 4 3 3 3 3 4 5 4 4 4 4 4 3 2 2 3 3 4 3 3 4 5 5 6 6 6
10 11 11 12 12 12 11 11 10 10 10 8 8 9 9 8 6 4 4 4 4 4 5 5 5 5 4 4 4 4 4 4 4 4 4 3 3 3 4 4 5 5 6
10 11 12 11 11 11 11 11 11 10 11 11 9 9 9 9 8 6 6 5 5 5 6 6 6 6 5 4 5 6 6 5 4 3 3 3 4 4 3 4 5 5 5
11 11 11 11 10 10 11 11 10 10 10 11 11 11 10 9 9 8 7 6 6 5 5 5 6 6 6 5 6 6 6 5 4 4 3 3 4 4 5 5 6 6 6
11 11 11 11 10 10 10 11 10 10 10 11 11 11 10 9 8 8 7 6 5 5 5 6 5 6 6 6 6 5 5 5 5 5 4 5 5 5 6 7 7 7 7
11 11 11 11 11 10 10 10 10 10 10 10 10 11 11 10 9 8 7 6 6 6 6 6 6 6 6 6 6 5 5 5 6 5 5 5 6 6 7 8 8 8 8
11 11 11 11 10 11 11 10 10 10 10 10 10 10 10 10 9 9 8 7 7 7 7 7 7 7 7 7 6 5 5 6 6 6 6 6 7 8 8 8 8 9 10
12 11 10 10 10 10 11 11 10 10 10 10 10 10 10 10 9 9 8 8 8 8 8 8 8 7 7 7 6 6 6 6 7 7 7 8 8 8 9 9 10 10 11
11 11 10 10 10 10 10 11 11 10 10 10 10 10 9 9 10 10 9 9 9 9 9 9 8 8 8 7 7 7 7 8 8 8 9 9 9 9 10 10 11 11 11
11 11 10 10 10 11 11 11 11 11 11 11 11 11 10 10 10 10 10 9 9 9 9 9 9 8 8 8 8 8 8 9 9 10 10 10 11 11 12 12 11 12 12
10 10 11 11 11 12 12 11 11 11 12 12 12 11 11 11 11 11 11 11 10 10 9 10 9 9 9 9 9 10 11 11 11 12 11 11 12 12 13 13 13 14 14
10 10 10 11 11 12 13 12 12 12 13 13 13 12 12 12 12 12 12 12 11 11 11 11 10 10 10 10 11 11 12 12 13 13 13 13 14 14 15 15 15 15 16
11 11 10 11 11 12 13 13 13 13 13 14 14 13 12 13 13 13 13 12 12 12 12 12 12 11 12 12 12 12 13 13 13 14 15 15 15 16 17 17 17 17 17

GEFSSE_500_meanwind_342.txt.gz
Wind_Speed
10 9 8 8 6 4 3 2 2 3 3 4 5 5 5 6 7 7 7 8 8 8 9 9 9 10 9 9 9 10 9 9 10 10 10 10 10 11 11 11 10 10 9
10 9 8 8 7 5 4 2 2 2 3 3 4 5 5 5 6 7 7 8 8 8 9 9 9 9 9 9 9 10 10 10 11 10 10 10 10 10 11 11 10 10 11
10 10 9 8 7 6 5 4 2 2 2 3 4 4 4 5 6 7 7 7 7 8 8 9 9 9 9 9 9 10 10 10 10 10 11 10 11 11 11 10 10 10 11
10 10 10 9 8 6 5 5 3 2 2 2 3 4 4 4 5 6 6 6 6 7 7 8 9 8 8 8 9 9 10 11 10 10 10 11 11 11 11 10 9 10 10
11 11 10 10 9 7 6 5 5 2 1 2 2 3 3 3 3 5 6 6 6 6 6 6 6 6 8 8 8 8 8 9 10 9 9 10 10 10 11 10 9 9 10
11 12 11 10 9 8 7 6 5 4 2 1 2 2 3 3 4 4 4 4 4 4 4 5 5 6 7 7 8 7 8 8 9 8 8 8 8 9 10 9 10 10 10
12 13 12 11 11 9 7 6 6 5 3 1 1 2 2 2 2 2 3 3 3 3 4 4 4 5 5 6 7 7 7 8 7 7 6 7 8 9 8 8 9 10 10
13 13 13 13 12 11 10 10 9 8 5 3 1 1 1 1 1 2 2 2 3 3 4 3 2 3 4 5 6 6 6 7 7 7 6 5 6 6 7 6 7 9 9
14 14 14 13 13 12 11 10 9 9 7 4 3 2 1 0 0 1 2 2 3 3 2 2 2 2 2 3 4 5 5 6 7 7 7 6 5 5 5 6 6 7 8
14 14 14 13 13 12 12 11 10 9 8 7 5 4 2 2 1 1 1 1 2 2 2 2 1 1 2 2 3 4 5 6 6 7 7 7 5 4 4 5 5 6 7
14 14 14 14 13 12 10 10 10 9 10 9 6 4 4 4 3 2 1 1 1 1 1 0 0 1 1 2 3 3 4 5 6 6 6 6 6 5 5 5 5 6 7
14 14 14 14 13 12 10 10 10 9 10 9 8 7 6 4 3 2 2 2 1 1 0 0 1 1 1 2 3 3 4 4 5 5 4 4 5 5 6 6 7 7 7
13 14 14 14 13 12 11 10 10 9 9 9 8 7 6 5 5 4 3 2 1 1 1 1 2 2 2 3 2 2 3 4 4 4 4 4 5 5 6 7 7 7 7
13 13 13 14 13 12 12 11 11 11 10 10 10 9 8 7 6 5 4 3 2 2 2 2 2 2 3 3 3 2 3 3 3 3 2 4 4 4 5 6 6 6 6
13 12 13 12 12 12 12 12 12 11 10 10 10 9 9 7 7 6 6 5 5 4 4 3 3 2 3 4 3 2 3 2 2 2 1 1 2 2 2 3 4 4 5
12 13 13 13 12 11 11 11 11 11 11 10 9 9 9 8 8 7 6 6 5 5 4 4 3 3 4 4 4 3 2 2 1 2 1 1 1 2 2 3 3 4 5
13 13 13 12 12 12 11 11 11 10 10 9 9 10 9 8 8 8 7 6 6 5 5 4 3 4 4 4 4 3 3 2 2 1 1 1 2 3 3 3 4 5 6
12 12 13 13 12 13 12 12 11 10 10 9 10 10 9 9 9 8 8 7 7 6 5 4 4 4 4 4 4 3 2 2 2 2 2 2 3 4 4 5 6 6 6
12 12 12 12 12 13 12 11 11 11 11 11 11 10 10 9 9 9 8 7 7 6 5 4 4 5 5 4 4 3 2 2 2 3 3 4 4 4 5 6 7 7 7
12 12 12 11 11 11 12 11 11 11 11 11 11 10 10 9 8 8 8 8 7 6 6 5 5 5 6 5 4 4 3 3 3 4 5 5 5 6 7 7 8 9 9
11 11 11 11 11 11 11 11 11 10 10 10 10 10 9 8 8 8 8 8 8 7 7 7 7 6 6 5 5 5 5 5 5 6 7 7 7 8 8 9 9 10 11
10 10 10 10 10 10 10 10 10 10 9 9 10 9 9 9 8 8 9 8 8 8 8 7 7 7 6 6 5 6 6 7 7 8 8 8 9 9 10 10 11 11 12
9 9 9 9 10 10 10 10 11 11 11 10 10 10 10 9 9 9 9 9 9 8 8 8 8 7 7 6 6 6 7 8 9 9 9 10 10 10 11 12 12 13 13
9 9 9 9 9 9 9 9 10 10 10 10 10 10 10 9 9 9 9 9 9 9 9 9 9 8 8 8 8 8 9 10 10 10 10 11 11 12 12 12 13 13 14
9 8 9 9 9 9 9 9 9 10 10 10 10 11 10 11 10 10 10 10 10 10 10 10 10 9 9 9 9 10 10 11 11 11 12 12 13 13 14 14 13 14 14
9 9 9 9 9 9 9 9 9 9 10 11 11 11 11 11 11 11 11 11 11 11 11 12 11 10 10 11 11 11 12 12 13 13 13 13 14 15 15 15 15 15 15

GEFSSE_500_meanwind_348.txt.gz
Wind_Speed
9 8 7 6 6 5 4 3 2 1 1 2 3 3 4 4 4 5 5 6 6 6 7 7 8 8 7 7 8 8 8 8 9 8 9 9 9 8 8 9 9 9 10
9 8 8 6 6 5 4 4 3 2 1 1 2 3 3 4 4 5 5 5 6 6 7 7 8 7 7 8 8 8 8 8 8 8 9 9 9 9 9 9 10 11 11
9 8 8 7 7 6 5 5 4 3 3 1 1 2 3 3 3 4 4 4 5 5 6 7 7 7 7 8 8 8 8 8 8 8 9 8 9 9 10 11 11 11 11
9 9 9 8 7 7 6 5 4 4 3 2 1 1 2 3 3 3 4 4 4 5 5 5 5 5 6 7 7 7 8 9 9 8 9 9 9 10 10 11 11 11 11
10 9 9 9 8 7 6 6 5 3 3 2 1 1 1 2 2 2 3 4 4 4 4 4 4 4 6 6 6 6 7 8 9 8 9 9 10 10 11 11 11 11 11
11 10 10 9 8 8 6 6 5 4 2 1 1 0 1 2 2 2 3 3 4 4 3 3 4 4 5 6 6 5 6 7 8 8 8 9 10 10 11 11 11 10 10
12 11 11 10 10 9 8 6 5 4 2 2 2 2 1 1 2 3 3 4 4 3 2 2 3 4 4 5 5 4 6 7 8 8 9 9 10 10 11 10 9 9 9
13 12 11 11 11 9 7 7 5 4 4 3 3 3 2 1 1 2 4 4 3 3 2 2 2 4 3 3 4 4 6 7 8 9 10 10 9 8 9 8 10 9 9
14 13 13 12 11 10 9 7 6 5 5 5 5 4 3 1 1 1 3 3 2 1 2 2 2 3 4 4 4 5 5 7 7 8 8 8 8 7 6 8 9 9 9
13 13 13 13 12 11 11 11 9 8 7 6 6 6 4 3 2 1 1 1 1 1 2 2 2 3 3 4 4 5 6 6 7 7 8 7 6 5 5 7 9 9 8
13 12 13 13 12 11 11 11 11 10 8 7 7 7 6 5 4 3 1 1 1 1 2 2 2 3 3 3 3 4 5 6 7 7 6 6 5 5 5 6 7 8 9
12 12 12 12 12 11 10 11 11 10 9 8 8 7 7 6 6 4 3 2 2 2 2 2 2 2 1 2 3 5 5 5 6 6 6 6 5 5 5 6 6 7 8
13 12 12 12 12 11 11 11 11 11 10 9 8 8 7 6 6 6 5 4 3 3 1 1 1 1 2 2 3 4 4 5 6 6 5 5 5 6 6 6 6 7 8
13 13 12 12 11 11 11 11 11 10 11 10 9 8 6 5 5 6 5 5 4 4 2 1 1 1 1 2 2 3 4 4 5 5 5 5 5 6 6 6 5 6 7
13 13 13 12 11 11 11 11 11 11 10 9 9 8 7 6 6 5 5 4 4 4 3 2 2 2 2 2 2 3 3 5 5 5 4 5 5 5 5 5 5 5 6
12 12 12 12 11 11 11 11 11 10 10 9 9 9 8 7 6 6 5 5 5 5 4 3 3 2 2 2 3 3 4 5 5 4 4 5 5 5 5 6 6 7 7
12 12 12 11 11 11 11 11 11 11 10 10 9 8 8 7 7 5 5 5 5 5 5 4 4 3 3 2 2 3 4 5 4 4 4 5 6 6 6 7 8 8 8
12 11 11 12 12 12 10 10 10 11 10 10 9 8 7 7 7 6 6 6 5 5 6 5 5 4 4 4 4 4 4 4 5 5 5 6 7 7 8 7 8 9 9
10 10 10 10 11 11 11 9 9 9 9 9 8 8 8 7 7 7 8 7 6 5 5 5 5 5 5 4 4 4 4 5 5 5 6 6 7 8 8 8 8 9 10
9 9 9 9 10 10 10 10 9 8 8 8 8 8 8 8 7 7 8 8 8 7 6 6 5 6 6 5 5 5 5 6 7 7 7 8 8 8 9 9 10 10 10
8 8 9 9 9 9 9 8 9 9 8 8 8 8 8 8 8 8 8 8 8 8 7 7 7 7 7 6 7 7 7 8 8 8 9 9 9 9 10 11 11 11 12
7 7 8 8 9 9 8 8 8 8 8 9 9 9 9 8 9 9 9 9 8 8 8 8 7 7 7 7 8 8 8 9 9 10 10 10 10 11 12 12 13 13 13
6 7 7 8 8 8 9 9 8 8 8 9 9 10 10 10 10 10 10 11 10 9 9 8 8 8 8 8 9 9 9 10 10 11 11 11 11 12 13 13 14 15 15
6 6 6 7 7 8 8 8 8 8 8 9 9 10 10 10 10 11 11 11 11 11 10 9 9 9 10 10 11 11 11 12 11 11 11 12 12 13 13 14 15 16 16
5 6 6 7 8 8 8 8 9 9 9 9 10 10 11 11 11 12 12 11 12 12 11 11 11 11 11 11 12 12 12 13 13 12 12 12 13 14 14 15 16 16 18
5 6 6 7 8 8 9 9 9 10 10 10 11 12 12 12 13 13 14 13 13 14 13 13 13 13 13 13 14 14 14 14 14 14 14 14 15 15 16 17 17 18 18

GEFSSE_500_meanwind_354.txt.gz
Wind_Speed
6 6 6 5 3 3 3 3 3 4 5 6 6 6 7 7 7 7 7 8 8 7 7 7 7 7 7 7 7 8 8 9 9 9 9 9 9 9 9 9 9 9 9
7 6 5 4 3 3 3 3 3 3 3 4 5 6 6 7 7 6 7 7 7 7 7 7 7 8 7 8 7 7 7 8 8 8 9 9 10 10 9 10 10 10 10
7 6 5 4 3 3 3 3 3 3 3 3 4 5 6 6 5 5 5 6 6 7 7 7 7 7 7 7 7 7 7 7 7 8 8 9 9 9 9 10 10 10 11
7 7 5 4 3 3 3 3 2 3 3 3 3 5 5 6 5 5 5 5 5 5 5 6 6 6 6 6 7 6 7 7 7 7 7 8 8 9 9 9 9 10 10
8 6 6 5 3 3 3 2 2 2 2 3 4 4 5 5 5 5 4 4 5 5 5 5 5 5 5 5 5 6 6 6 6 6 7 7 8 8 8 9 9 9 9
9 8 7 6 4 4 3 3 2 2 2 3 3 3 4 4 5 5 4 4 4 4 5 5 4 5 5 5 5 5 5 5 6 6 6 6 7 7 8 9 9 9 9
9 9 7 6 5 4 3 2 2 2 3 3 3 3 2 2 3 5 6 5 3 3 3 4 3 3 4 4 5 5 5 5 7 6 6 7 7 7 8 9 9 9 9
9 9 8 7 6 6 4 3 2 3 3 3 3 3 2 2 3 4 5 4 3 3 3 3 3 3 3 3 4 5 6 5 6 6 6 7 7 8 8 9 9 10 10
9 9 8 8 7 6 6 5 5 4 3 3 3 3 3 2 2 2 3 3 2 2 3 3 3 3 3 3 4 5 6 6 7 6 6 7 8 8 8 9 10 10 11
10 9 9 9 8 7 6 5 4 3 3 3 4 4 4 3 3 3 2 2 2 2 3 3 2 3 3 3 4 6 6 6 6 6 6 6 8 9 9 9 9 10 11
10 9 9 10 9 8 6 6 4 3 3 4 4 5 4 4 3 2 1 1 1 1 2 2 2 2 3 3 4 5 5 5 5 5 6 6 7 8 9 9 9 10 11
9 9 10 10 9 8 7 6 6 5 5 5 5 5 5 5 4 3 2 1 1 1 1 0 1 2 2 3 4 4 4 4 4 5 5 6 6 7 7 8 8 7 9
9 9 9 10 10 9 8 8 8 7 6 6 6 5 5 5 4 4 4 3 3 2 1 0 1 1 2 2 3 3 4 4 4 5 5 6 6 7 8 7 6 6 7
9 9 9 9 10 10 9 9 9 8 8 7 6 6 6 5 5 5 5 4 3 2 1 1 0 1 2 3 4 4 3 4 4 6 6 6 7 7 8 7 7 6 6
9 9 9 9 9 10 9 9 9 9 8 7 7 6 6 5 5 4 4 4 3 2 1 0 1 1 1 3 4 4 4 4 5 6 6 6 7 8 8 7 7 7 7
9 9 9 9 9 9 9 8 8 8 8 8 7 7 6 5 5 5 5 4 4 3 1 1 2 2 2 3 2 2 3 4 5 6 6 6 7 8 8 9 8 8 8
9 8 8 9 9 9 8 8 8 8 7 7 7 7 6 6 6 6 5 5 4 3 2 2 2 2 2 2 2 2 3 4 4 5 5 5 6 7 8 8 8 8 8
9 8 8 9 8 8 9 9 9 9 8 7 6 7 7 7 7 7 7 6 5 4 3 3 2 2 2 3 3 3 3 4 4 5 6 6 7 7 8 8 9 9 9
9 8 8 8 8 8 8 8 8 7 7 7 7 7 7 7 7 7 7 7 7 6 5 5 4 3 4 4 4 4 5 5 5 6 7 8 8 9 9 9 9 10 11
8 8 8 8 8 7 7 6 6 7 6 6 6 7 7 7 8 7 8 8 8 7 6 6 5 5 6 6 6 6 6 7 7 8 9 10 10 10 10 10 10 11 12
7 8 8 7 8 7 6 5 6 6 6 6 7 7 7 7 8 7 8 8 8 7 8 8 7 7 7 7 8 8 8 8 9 10 11 11 11 10 10 10 11 12 12
6 7 7 7 8 8 7 6 6 6 6 7 7 8 8 9 9 8 9 9 9 8 8 8 8 8 8 9 9 10 10 10 10 11 11 12 12 12 12 12 12 12 13
5 6 6 6 7 8 8 9 8 7 7 8 8 9 9 10 10 10 10 10 10 10 10 10 9 9 10 10 10 10 11 11 12 12 12 12 12 13 13 13 13 13 14
4 5 5 5 7 7 8 8 8 8 8 9 9 10 10 10 11 11 11 11 11 11 11 11 11 11 11 11 11 11 12 13 13 13 13 13 13 14 14 14 14 15 15
5 5 5 6 7 8 8 9 9 9 9 10 10 10 11 12 12 12 12 12 12 12 12 13 12 12 12 12 12 13 13 14 14 13 13 14 14 14 15 15 16 16 16
5 5 6 7 8 9 9 10 10 10 11 11 12 12 12 13 14 13 14 14 14 14 14 15 14 13 13 13 14 14 14 14 15 15 15 15 15 16 16 17 17 17 17